Nahuel Fernandez

Olheiro-Chefe - Defensor Sporting
4 Abr 2027
Domingo
Processo

Personalidade

Adaptabilidade (2) Ambição (3) Controvérsia (3) Lealdade (12) Pressão (17) Profissionalismo (6) Espírito Esportivo (17) Temperamento (11)

Perfil

Estilo de Treinamento Democrático
Licença Nacional B
Determinação 10
Gestão de Pessoas 7
Motivação 11
Disciplina 10
Satisfação no Trabalho
58%
Fadiga
0%
Função Olheiro-Chefe
Salário 66.0K p/s
Contrato 14.03.2030

Desempenho

Comportamento Bom
Eficácia do Treinamento
23%
Desenvolvimento do Jogador
20%
Prevenção de Lesões
60%
Implementação Tática
60%

Eventos Recentes

Participou de uma reunião de recrutamento 7d atrás
Participou de uma reunião de recrutamento 14d atrás
Participou de uma reunião de recrutamento 21d atrás
Participou de uma reunião de recrutamento 28d atrás
Participou de uma reunião de recrutamento 35d atrás
Participou de uma reunião de recrutamento 42d atrás
Participou de uma reunião de recrutamento 49d atrás
Participou de uma reunião de recrutamento 56d atrás

Monitorando agora

91
Jogador Clube Status Habilidade Confiança Observado Última observação Último voto
Lucas Bassadone Atenas Ativo 80 / 99 51% 1 21.12.2026 -
Gonzalo Gómez Juventud Ativo 115 / 119 51% 1 14.12.2026 -
Lucio Castillo Colegiales Ativo 109 / 108 40% 2 29.11.2026 -
Ola Solbakken FC Nordsjaelland Ativo 116 / 128 40% 1 29.11.2026 -
Santiago Solari Racing Club Ativo 126 / 122 40% 1 26.11.2026 -
Enzo González Defensores Ativo 99 / 105 40% 2 24.11.2026 -
Evidence Makgopa Orlando Pirates Ativo 117 / 117 40% 1 24.11.2026 Mais informações
Aaron Spetale AGF Ativo 134 / 111 40% 3 23.11.2026 -
Alexander Díaz Deportivo Riestra Ativo 128 / 119 40% 3 23.11.2026 -
Ştefan Baiaram Universitatea Craiova Ativo 115 / 130 40% 1 22.11.2026 -
Etiosa Ighodaro Kaizer Chiefs Ativo 119 / 120 40% 1 21.11.2026 -
Johannes Eggestein Austria Wien Ativo 143 / 114 40% 1 21.11.2026 Mais informações
Alexis Cuello San Lorenzo Ativo 133 / 129 40% 1 20.11.2026 -
Luca Martínez Dupuy Godoy Cruz Ativo 126 / 121 40% 1 20.11.2026 -
Ignacio Russo Tigre Ativo 137 / 125 40% 3 18.11.2026 Observar
Job Ochieng Real Sociedad Ativo 86 / 104 40% 1 18.11.2026 -
Rok Zajc NK Domzale Ativo 113 / 118 40% 2 17.11.2026 -
Renzo Reynaga Patronato Ativo 107 / 110 40% 1 17.11.2026 -
Thiago Calone All Boys Ativo 120 / 116 40% 2 16.11.2026 -
Keagan Mothiba SuperSport United Ativo 127 / 106 40% 2 16.11.2026 -
Camilo Durán Bloemfontein Celtic Ativo 104 / 113 40% 2 15.11.2026 -
Josh Koroma Leyton Orient Ativo 112 / 108 40% 1 15.11.2026 -
Lucas Varaldo Central Córdoba SdE Ativo 109 / 125 40% 1 13.11.2026 -
Nicolás Cordero Aldosivi Ativo 122 / 120 40% 2 09.11.2026 Mais informações
Mauro Méndez Tigre Ativo 113 / 122 40% 1 09.11.2026 -
Bruno Barticciotto Talleres Ativo 118 / 133 40% 1 02.11.2026 Mais informações
Martín Pino Antalyaspor Ativo 109 / 113 40% 4 01.11.2026 -
Agustín Hausch Defensa y Justicia Ativo 115 / 121 40% 2 01.11.2026 -
Franco Fagúndez Estudiantes Ativo 126 / 115 40% 2 31.10.2026 -
Antony Alonso Deportivo Riestra Ativo 112 / 126 40% 1 30.10.2026 -
Marco Miori Alvarado Ativo 99 / 116 40% 3 29.10.2026 -
Misael Sosa Godoy Cruz Ativo 102 / 115 40% 4 28.10.2026 -
Aaron Collins Milton Keynes Dons Ativo 135 / 118 40% 1 28.10.2026 -
Marcelo Torres Gimnasia La Plata Ativo 111 / 115 40% 2 27.10.2026 -
Maximiliano Rodríguez Huachipato Ativo 102 / 110 40% 5 25.10.2026 -
Matías Giménez Rojas Argentinos Juniors Ativo 117 / 118 40% 1 25.10.2026 -
Enzo Avaro Mitre Ativo 122 / 112 40% 1 24.10.2026 -
Bautista Arricau OB Ativo 119 / 104 40% 2 23.10.2026 -
Santiago Apa All Boys Ativo 116 / 105 40% 1 23.10.2026 -
Ignacio Ramírez Newell's Old Boys Ativo 133 / 117 40% 1 22.10.2026 -
Felipe Fernández Vorskla Ativo 111 / 92 40% 2 21.10.2026 -
Michael Vadulli Audax Italiano Ativo 107 / 107 40% 2 20.10.2026 -
Yoshan Valois Lanús Ativo 129 / 122 40% 2 15.10.2026 -
Rodrigo Bogarín Barracas Central Ativo 108 / 123 40% 1 15.10.2026 -
Jerónimo Porto Lapegüe Slask Ativo 91 / 102 40% 1 14.10.2026 -
Justo Giani Universidad Catolica Ativo 111 / 123 40% 3 09.10.2026 -
Carlos Gugenheim Almirante Brown Ativo 120 / 114 40% 1 03.10.2026 -
Favio Cabral Mitre Ativo 106 / 120 40% 1 03.10.2026 -
Luca Franco Arsenal Ativo 120 / 105 40% 1 02.10.2026 -
Nardin Mulahusejnović Vojvodina Ativo 126 / 121 40% 1 28.09.2026 -
Luciano Cosentino Wanderers Ativo 122 / 127 40% 1 28.09.2026 -
Johar Mejía Rapid Wien Ativo 109 / 110 40% 2 24.09.2026 -
Justin-Noël Kalumba Mallorca Ativo 129 / 125 40% 1 24.09.2026 -
Julián Brea Cobresal Ativo 97 / 96 40% 2 23.09.2026 -
Javier Martínez Almirante Brown Ativo 118 / 104 40% 1 23.09.2026 -
Jonatan Torres Cerro Porteno Ativo 120 / 114 40% 1 22.09.2026 -
Leandro Suhr Boston River Ativo 104 / 123 40% 1 22.09.2026 -
Mariano Peralta Bauer HNK Rijeka Ativo 117 / 99 40% 2 21.09.2026 -
Diego Valencia Gornik Leczna Ativo 93 / 106 40% 1 20.09.2026 -
Jhojan Julio Queretaro Ativo 142 / 111 40% 2 19.09.2026 -
Ismael Díaz Leon Ativo 109 / 135 40% 5 18.09.2026 -
Agustín Venezia Iquique Ativo 97 / 109 40% 3 18.09.2026 -
Eric Ramírez Carabobo Ativo 114 / 112 40% 1 16.09.2026 -
Roberto de la Rosa Monterrey Ativo 107 / 114 40% 1 15.09.2026 -
Marcos Camarda Santiago Wanderers Ativo 93 / 107 40% 1 13.09.2026 -
Juan David Rueda Alianza Petrolera Ativo 119 / 102 40% 2 09.09.2026 -
Mourad Tijuana Ativo 128 / 121 40% 2 06.09.2026 -
Ricardo Marín Guadalajara Ativo 133 / 118 40% 1 04.09.2026 -
Alejandro Piedrahita Deportivo Pereira Ativo 120 / 120 40% 1 01.09.2026 -
Jefry Zapata Once Caldas Ativo 129 / 121 40% 2 31.08.2026 -
José Balza Deportivo Tachira Ativo 106 / 100 40% 1 31.08.2026 -
Michael Nike Patriotas Ativo 91 / 109 40% 1 26.08.2026 -
Adrián Parra Deportes Tolima Ativo 121 / 115 40% 1 25.08.2026 -
Federico Viñas Toluca Ativo 119 / 117 40% 2 23.08.2026 -
Efraín Álvarez Guadalajara Ativo 112 / 123 40% 1 20.08.2026 -
Christian Ebere Cruz Azul Ativo 109 / 113 40% 1 19.08.2026 -
Juan Romero Olimpia Ativo 100 / 111 40% 1 16.08.2026 -
José Barreto Fehervar Ativo 93 / 121 40% 1 16.08.2026 -
Florián Monzón Atlas Ativo 141 / 128 40% 1 14.08.2026 -
Ramiro Ruiz Rodríguez Atlético Tucumán Ativo 119 / 121 40% 1 13.08.2026 -
Hugo Cuypers Monterrey Ativo 143 / 120 40% 1 11.08.2026 -
Mateo Castillo Real Cartagena Ativo 129 / 124 40% 1 09.08.2026 -
Delvin Alfonzo Deportivo Tachira Ativo 112 / 116 40% 1 09.08.2026 -
Alan Mozo Pachuca Ativo 119 / 115 40% 1 08.08.2026 -
Mateo Garavito Deportivo Pasto Ativo 120 / 117 40% 1 08.08.2026 -
Duk Atlas Ativo 94 / 105 40% 1 07.08.2026 -
Adolfo Muñoz UTC Ativo 111 / 116 40% 1 07.08.2026 -
Enzo Larrosa Independiente Medellin Ativo 99 / 106 40% 1 05.08.2026 -
Felipe Vizeu Sporting Cristal Ativo 113 / 120 40% 2 04.08.2026 -
Daniel Rivera Junior Ativo 119 / 115 40% 1 02.08.2026 -
Facundo Miño Deportivo Riestra Ativo 114 / 116 40% 1 02.08.2026 -